Simultaneous Nadir Overpasses (SNOs) Predictions

Prediction of SNOs between GOES-15 and NOAA-20 Satellite Orbit:

Table of predicted SNOs for the next 14.0 days since TLE Epoch: 10/11/2019
Index Date Time (GOES-15) GOES-15 Lat,Lon NOAA-20 Lat,Lon Distance(km) Time Diff (sec)
1 10/13/2019 10:11:02 0.23,-128.03 1.05,-131.78 426.81 80
2 10/14/2019 09:54:58 0.24,-128.06 0.04,-127.25 93.09 80
3 10/16/2019 21:55:30 -0.23,-128.08 -0.24,-128.02 6.71 80
4 10/19/2019 09:58:35 0.22,-128.20 0.34,-128.78 65.46 80
5 10/20/2019 09:42:30 0.23,-128.22 -0.67,-124.24 453.24 80
6 10/21/2019 22:01:46 -0.20,-128.19 -0.53,-129.55 155.23 80
7 10/22/2019 21:45:42 -0.21,-128.21 0.48,-125.02 363.34 80
8 10/24/2019 10:04:51 0.18,-128.30 0.63,-130.30 228.68 80
9 10/25/2019 09:48:47 0.19,-128.31 -0.38,-125.77 289.60 80




NCC Satellite Simultaneous Nadir Overpasses (SNOs) Prediction Service
